Creek Data

    Home     View Charts     View Raw Data     Messages

ID Distance Battery Voltage Battery Current Internal Temp Internal Humidity External Temp Solar Input rssi snr Time Stamp Record
34360 15.2 4.01 -5 43 39 44 0 -73 8 03/07/2025 11:30 PM 16087
34359 15.1 3.95 -5 43 39 45 0 -73 8 03/07/2025 11:15 PM 16086
34358 15.1 3.95 -5 44 39 45 0 -73 8 03/07/2025 11:00 PM 16085
34357 15.1 3.95 -5 44 39 46 0 -73 8 03/07/2025 10:45 PM 16084
34356 15.2 4.01 -5 43 40 46 0 -72 8 03/07/2025 10:30 PM 16083
34355 15.1 3.95 -5 44 40 46 0 -73 8 03/07/2025 10:15 PM 16082
34354 15.1 3.95 -5 45 39 47 0 -74 8 03/07/2025 10:00 PM 16081
34353 15.1 3.95 -5 46 40 48 0.1 -72 8 03/07/2025 09:45 PM 16080
34352 15.1 4.01 -5 46 40 47 0 -74 8 03/07/2025 09:30 PM 16079
34351 15.1 3.95 -5 47 39 50 0 -74 8 03/07/2025 09:15 PM 16078
34350 15.1 3.96 -5 48 39 51 0 -74 8 03/07/2025 09:00 PM 16077
34349 15.1 3.95 -5 48 40 51 0.1 -74 8 03/07/2025 08:45 PM 16076
34348 15.2 3.96 -5 49 40 52 0 -74 8 03/07/2025 08:30 PM 16075
34347 15.2 4.01 -5 49 40 51 0.1 -74 8 03/07/2025 08:15 PM 16074
34346 15.1 3.96 -5 49 40 51 0 -74 8 03/07/2025 08:00 PM 16073
34345 15.2 4.02 -5 50 41 52 0 -75 8 03/07/2025 07:45 PM 16072
34344 0.0 3.96 -5 50 41 52 0 -74 8 03/07/2025 07:31 PM 16071
34343 0.0 3.96 -5 51 42 53 0 -74 8 03/07/2025 07:15 PM 16070
34342 15.1 3.96 -5 53 43 53 0 -74 8 03/07/2025 06:45 PM 16068
34341 15.1 3.96 -5 55 44 54 0 -75 8 03/07/2025 06:30 PM 16067
34340 15.1 4.02 -9 57 44 57 1.8 -75 8 03/07/2025 06:15 PM 16066
34339 15.1 4.03 0 60 43 58 4.5 -75 8 03/07/2025 06:00 PM 16065
34338 15.2 4.07 0 64 41 60 4.5 -75 8 03/07/2025 05:45 PM 16064
34337 15.2 4.07 14 67 40 62 4.5 -75 8 03/07/2025 05:30 PM 16063
34336 15.2 4.01 0 70 39 64 5.1 -76 7 03/07/2025 05:00 PM 16061